Year,Month,Day,Hour,Minute,Value (Times are PST for temperature in C)
2014,12,10,00,00,10.10
2014,12,10,00,01,10.10
2014,12,10,00,02,10.10
2014,12,10,00,03,10.10
2014,12,10,00,04,10.10
2014,12,10,00,05,10.10
2014,12,10,00,06,10.10
2014,12,10,00,07,10.10
2014,12,10,00,08,10.10
2014,12,10,00,09,10.10
2014,12,10,00,10,10.10
2014,12,10,00,11,10.10
2014,12,10,00,12,10.10
2014,12,10,00,13,10.10
2014,12,10,00,14,10.10
2014,12,10,00,15,10.10
2014,12,10,00,16,10.10
2014,12,10,00,17,10.10
2014,12,10,00,18,10.10
2014,12,10,00,19,10.10
2014,12,10,00,20,10.10
2014,12,10,00,21,10.10
2014,12,10,00,22,10.20
2014,12,10,00,23,10.20
2014,12,10,00,24,10.20
2014,12,10,00,25,10.20
2014,12,10,00,26,10.20
2014,12,10,00,27,10.20
2014,12,10,00,28,10.20
2014,12,10,00,29,10.20
2014,12,10,00,30,10.20
2014,12,10,00,31,10.30
2014,12,10,00,32,10.30
2014,12,10,00,33,10.30
2014,12,10,00,34,10.30
2014,12,10,00,35,10.30
2014,12,10,00,36,10.30
2014,12,10,00,37,10.30
2014,12,10,00,38,10.30
2014,12,10,00,39,10.30
2014,12,10,00,40,10.30
2014,12,10,00,41,10.40
2014,12,10,00,42,10.40
2014,12,10,00,43,10.40
2014,12,10,00,44,10.40
2014,12,10,00,45,10.40
2014,12,10,00,46,10.40
2014,12,10,00,47,10.40
2014,12,10,00,48,10.40
2014,12,10,00,49,10.40
2014,12,10,00,50,10.40
2014,12,10,00,51,10.40
2014,12,10,00,52,10.40
2014,12,10,00,53,10.40
2014,12,10,00,54,10.40
2014,12,10,00,55,10.40
2014,12,10,00,56,10.40
2014,12,10,00,57,10.40
2014,12,10,00,58,10.40
2014,12,10,00,59,10.40
2014,12,10,01,00,10.50
2014,12,10,01,01,10.50
2014,12,10,01,02,10.50
2014,12,10,01,03,10.50
2014,12,10,01,04,10.50
2014,12,10,01,05,10.60
2014,12,10,01,06,10.60
2014,12,10,01,07,10.60
2014,12,10,01,08,10.60
2014,12,10,01,09,10.60
2014,12,10,01,10,10.60
2014,12,10,01,11,10.60
2014,12,10,01,12,10.60
2014,12,10,01,13,10.60
2014,12,10,01,14,10.60
2014,12,10,01,15,10.60
2014,12,10,01,16,10.60
2014,12,10,01,17,10.60
2014,12,10,01,18,10.70
2014,12,10,01,19,10.70
2014,12,10,01,20,10.70
2014,12,10,01,21,10.70
2014,12,10,01,22,10.70
2014,12,10,01,23,10.70
2014,12,10,01,24,10.70
2014,12,10,01,25,10.70
2014,12,10,01,26,10.70
2014,12,10,01,27,10.80
2014,12,10,01,28,10.80
2014,12,10,01,29,10.80
2014,12,10,01,30,10.80
2014,12,10,01,31,10.80
2014,12,10,01,32,10.80
2014,12,10,01,33,10.90
2014,12,10,01,34,10.90
2014,12,10,01,35,10.90
2014,12,10,01,36,10.90
2014,12,10,01,37,10.90
2014,12,10,01,38,10.90
2014,12,10,01,39,10.90
2014,12,10,01,40,10.90
2014,12,10,01,41,10.90
2014,12,10,01,42,10.90
2014,12,10,01,43,10.90
2014,12,10,01,44,10.90
2014,12,10,01,45,10.90
2014,12,10,01,46,10.90
2014,12,10,01,47,10.90
2014,12,10,01,48,10.90
2014,12,10,01,49,10.90
2014,12,10,01,50,10.90
2014,12,10,01,51,10.90
2014,12,10,01,52,10.90
2014,12,10,01,53,10.90
2014,12,10,01,54,10.90
2014,12,10,01,55,10.90
2014,12,10,01,56,10.90
2014,12,10,01,57,10.90
2014,12,10,01,58,10.90
2014,12,10,01,59,10.90
2014,12,10,02,00,10.90
2014,12,10,02,01,10.90
2014,12,10,02,02,10.90
2014,12,10,02,03,10.90
2014,12,10,02,04,10.90
2014,12,10,02,05,10.90
2014,12,10,02,06,10.90
2014,12,10,02,07,11.00
2014,12,10,02,08,11.00
2014,12,10,02,09,11.00
2014,12,10,02,10,11.10
2014,12,10,02,11,11.10
2014,12,10,02,12,11.10
2014,12,10,02,13,11.10
2014,12,10,02,14,11.10
2014,12,10,02,15,11.10
2014,12,10,02,16,11.10
2014,12,10,02,17,11.10
2014,12,10,02,18,11.10
2014,12,10,02,19,11.10
2014,12,10,02,20,11.10
2014,12,10,02,21,11.10
2014,12,10,02,22,11.20
2014,12,10,02,23,11.20
2014,12,10,02,24,11.20
2014,12,10,02,25,11.20
2014,12,10,02,26,11.20
2014,12,10,02,27,11.30
2014,12,10,02,28,11.30
2014,12,10,02,29,11.40
2014,12,10,02,30,11.40
2014,12,10,02,31,11.40
2014,12,10,02,32,11.40
2014,12,10,02,33,11.50
2014,12,10,02,34,11.50
2014,12,10,02,35,11.50
2014,12,10,02,36,11.50
2014,12,10,02,37,11.50
2014,12,10,02,38,11.50
2014,12,10,02,39,11.60
2014,12,10,02,40,11.50
2014,12,10,02,41,11.60
2014,12,10,02,42,11.60
2014,12,10,02,43,11.50
2014,12,10,02,44,11.60
2014,12,10,02,45,11.60
2014,12,10,02,46,11.60
2014,12,10,02,47,11.60
2014,12,10,02,48,11.60
2014,12,10,02,49,11.60
2014,12,10,02,50,11.60
2014,12,10,02,51,11.60
2014,12,10,02,52,11.70
2014,12,10,02,53,11.70
2014,12,10,02,54,11.70
2014,12,10,02,55,11.70
2014,12,10,02,56,11.80
2014,12,10,02,57,11.90
2014,12,10,02,58,12.00
2014,12,10,02,59,12.10
2014,12,10,03,00,12.20
2014,12,10,03,01,12.20
2014,12,10,03,02,12.20
2014,12,10,03,03,12.10
2014,12,10,10,04,12.10
2014,12,10,10,05,12.10
2014,12,10,10,06,12.00
2014,12,10,10,07,11.90
2014,12,10,10,08,11.90
2014,12,10,10,09,11.90
2014,12,10,10,10,11.90
2014,12,10,10,11,11.90
2014,12,10,10,12,11.90
2014,12,10,10,13,12.00
2014,12,10,10,14,12.00
2014,12,10,10,15,12.10
2014,12,10,10,16,12.10
2014,12,10,10,17,12.10
2014,12,10,10,18,12.20
2014,12,10,10,19,12.20
2014,12,10,10,20,12.30
2014,12,10,10,21,12.30
2014,12,10,10,22,12.20
2014,12,10,10,23,12.20
2014,12,10,10,24,12.10
2014,12,10,10,25,12.10
2014,12,10,10,26,12.00
2014,12,10,10,27,12.00
2014,12,10,10,28,11.90
2014,12,10,10,29,11.90
2014,12,10,10,30,11.90
2014,12,10,10,31,11.80
2014,12,10,10,32,11.80
2014,12,10,10,33,11.80
2014,12,10,10,34,11.80
2014,12,10,10,35,11.80
2014,12,10,10,36,11.80
2014,12,10,10,37,11.80
2014,12,10,10,38,11.80
2014,12,10,10,39,11.80
2014,12,10,10,40,11.70
2014,12,10,10,41,11.80
2014,12,10,10,42,11.80
2014,12,10,10,43,11.80
2014,12,10,10,44,11.80
2014,12,10,10,45,11.80
2014,12,10,10,46,11.80
2014,12,10,10,47,11.80
2014,12,10,10,48,11.70
2014,12,10,10,49,11.70
2014,12,10,10,50,11.70
2014,12,10,10,51,11.70
2014,12,10,10,52,11.70
2014,12,10,10,53,11.70
2014,12,10,10,54,11.70
2014,12,10,10,55,11.70
2014,12,10,10,56,11.70
2014,12,10,10,57,11.80
2014,12,10,10,58,11.80
2014,12,10,10,59,11.80
2014,12,10,11,00,11.80
2014,12,10,11,01,11.80
2014,12,10,11,02,11.80
2014,12,10,11,03,11.80
2014,12,10,11,04,11.80
2014,12,10,11,05,11.80
2014,12,10,11,06,11.80
2014,12,10,11,07,11.80
2014,12,10,11,08,11.80
2014,12,10,11,09,11.80
2014,12,10,11,10,11.80
2014,12,10,11,11,11.80
2014,12,10,11,12,11.80
2014,12,10,11,13,11.80
2014,12,10,11,14,11.80
2014,12,10,11,15,11.80
2014,12,10,11,16,11.80
2014,12,10,11,17,11.80
2014,12,10,11,18,11.80
2014,12,10,11,19,11.80
2014,12,10,11,20,11.80
2014,12,10,11,21,11.80
2014,12,10,11,22,11.80
2014,12,10,11,23,11.80
2014,12,10,11,24,11.70
2014,12,10,11,25,11.70
2014,12,10,11,26,11.70
2014,12,10,11,27,11.70
2014,12,10,11,28,11.70
2014,12,10,11,29,11.70
2014,12,10,11,30,11.70
2014,12,10,11,31,11.70
2014,12,10,11,32,11.70
2014,12,10,11,33,11.70
2014,12,10,11,34,11.70
2014,12,10,11,35,11.70
2014,12,10,11,36,11.70
2014,12,10,11,37,11.70
2014,12,10,11,38,11.70
2014,12,10,11,39,11.70
2014,12,10,11,40,11.60
2014,12,10,11,41,11.60
2014,12,10,11,42,11.60
2014,12,10,11,43,11.60
2014,12,10,11,44,11.50
2014,12,10,11,45,11.50
2014,12,10,11,46,11.50
2014,12,10,11,47,11.50
2014,12,10,11,48,11.40
2014,12,10,11,49,11.40
2014,12,10,11,50,11.40
2014,12,10,11,51,11.40
2014,12,10,11,52,11.40
2014,12,10,11,53,11.50
2014,12,10,11,54,11.50
2014,12,10,11,55,11.40
2014,12,10,11,56,11.40
2014,12,10,11,57,11.40
2014,12,10,11,58,11.40
2014,12,10,11,59,11.40
2014,12,10,12,00,11.40
2014,12,10,12,01,11.30
2014,12,10,12,02,11.30
2014,12,10,12,03,11.30
2014,12,10,12,04,11.20
2014,12,10,12,05,11.20
2014,12,10,12,06,11.20
2014,12,10,12,07,11.10
2014,12,10,12,08,11.10
2014,12,10,12,09,11.10
2014,12,10,12,10,11.10
2014,12,10,12,11,11.00
2014,12,10,12,12,11.00
2014,12,10,12,13,11.00
2014,12,10,12,14,10.90
2014,12,10,12,15,10.90
2014,12,10,12,16,10.90
2014,12,10,12,17,10.90
2014,12,10,12,18,10.80
2014,12,10,12,19,10.80
2014,12,10,12,20,10.80
2014,12,10,12,21,10.70
2014,12,10,12,22,10.70
2014,12,10,12,23,10.70
2014,12,10,12,24,10.70
2014,12,10,12,25,10.70
2014,12,10,12,26,10.70
2014,12,10,12,27,10.60
2014,12,10,12,28,10.60
2014,12,10,12,29,10.60
2014,12,10,12,30,10.60
2014,12,10,12,31,10.60
2014,12,10,12,32,10.60
2014,12,10,12,33,10.60
2014,12,10,12,34,10.60
2014,12,10,12,35,10.60
2014,12,10,12,36,10.70
2014,12,10,12,37,10.70
2014,12,10,12,38,10.70
2014,12,10,12,39,10.70
2014,12,10,12,40,10.70
2014,12,10,12,41,10.70
2014,12,10,12,42,10.70
2014,12,10,12,43,10.70
2014,12,10,12,44,10.70
2014,12,10,12,45,10.70
2014,12,10,12,46,10.70
2014,12,10,12,47,10.70
2014,12,10,12,48,10.70
2014,12,10,12,49,10.60
2014,12,10,12,50,10.60
2014,12,10,12,51,10.60
2014,12,10,12,52,10.60
2014,12,10,12,53,10.50
2014,12,10,12,54,10.50
2014,12,10,12,55,10.50
2014,12,10,12,56,10.40
2014,12,10,12,57,10.40
2014,12,10,12,58,10.40
2014,12,10,12,59,10.30
2014,12,10,13,00,10.30
2014,12,10,13,01,10.30
2014,12,10,13,02,10.30
2014,12,10,13,03,10.30
2014,12,10,13,04,10.30
2014,12,10,13,05,10.20
2014,12,10,13,06,10.20
2014,12,10,13,07,10.20
2014,12,10,13,08,10.20
2014,12,10,13,09,10.20
2014,12,10,13,10,10.20
2014,12,10,13,11,10.20
2014,12,10,13,12,10.20
2014,12,10,13,13,10.10
2014,12,10,13,14,10.10
2014,12,10,13,15,10.10
2014,12,10,13,16,10.10
2014,12,10,13,17,10.10
2014,12,10,13,18,10.10
2014,12,10,13,19,10.10
2014,12,10,13,20,10.10
2014,12,10,13,21,10.20
2014,12,10,13,22,10.20
2014,12,10,13,23,10.20
2014,12,10,13,24,10.20
2014,12,10,13,25,10.20
2014,12,10,13,26,10.20
2014,12,10,13,27,10.20
2014,12,10,13,28,10.30
2014,12,10,13,29,10.30
2014,12,10,13,30,10.30
2014,12,10,13,31,10.30
2014,12,10,13,32,10.30
2014,12,10,13,33,10.30
2014,12,10,13,34,10.40
2014,12,10,13,35,10.40
2014,12,10,13,36,10.40
2014,12,10,13,37,10.40
2014,12,10,13,38,10.40
2014,12,10,13,39,10.40
2014,12,10,13,40,10.40
2014,12,10,13,41,10.40
2014,12,10,13,42,10.40
2014,12,10,13,43,10.40
2014,12,10,13,44,10.40
2014,12,10,13,45,10.40
2014,12,10,13,46,10.40
2014,12,10,13,47,10.50
2014,12,10,13,48,10.50
2014,12,10,13,49,10.50
2014,12,10,13,50,10.50
2014,12,10,13,51,10.50
2014,12,10,13,52,10.50
2014,12,10,13,53,10.60
2014,12,10,13,54,10.60
2014,12,10,13,55,10.60
2014,12,10,13,56,10.60
2014,12,10,13,57,10.60
2014,12,10,13,58,10.60
2014,12,10,13,59,10.60
2014,12,10,14,00,10.60
2014,12,10,14,01,10.60
2014,12,10,14,02,10.60
2014,12,10,14,03,10.60
2014,12,10,14,04,10.60
2014,12,10,14,05,10.60
2014,12,10,14,06,10.60
2014,12,10,14,07,10.50
2014,12,10,14,08,10.50
2014,12,10,14,09,10.60
2014,12,10,14,10,10.50
2014,12,10,14,11,10.50
2014,12,10,14,12,10.50
2014,12,10,14,13,10.50
2014,12,10,14,14,10.50
2014,12,10,14,15,10.50
2014,12,10,14,16,10.50
2014,12,10,14,17,10.50
2014,12,10,14,18,10.40
2014,12,10,14,19,10.40
2014,12,10,14,20,10.40
2014,12,10,14,21,10.40
2014,12,10,14,22,10.40
2014,12,10,14,23,10.40
2014,12,10,14,24,10.40
2014,12,10,14,25,10.40
2014,12,10,14,26,10.40
2014,12,10,14,27,10.50
2014,12,10,14,28,10.50
2014,12,10,14,29,10.50
2014,12,10,14,30,10.50
2014,12,10,14,31,10.50
2014,12,10,14,32,10.60
2014,12,10,14,33,10.60
2014,12,10,14,34,10.60
2014,12,10,14,35,10.60
2014,12,10,14,36,10.60
2014,12,10,14,37,10.60
2014,12,10,14,38,10.60
2014,12,10,14,39,10.60
2014,12,10,14,40,10.60
2014,12,10,14,41,10.60
2014,12,10,14,42,10.60
2014,12,10,14,43,10.60
2014,12,10,14,44,10.60
2014,12,10,14,45,10.60
2014,12,10,14,46,10.60
2014,12,10,14,47,10.60
2014,12,10,14,48,10.60
2014,12,10,14,49,10.60
2014,12,10,14,50,10.60
2014,12,10,14,51,10.60
2014,12,10,14,52,10.60
2014,12,10,14,53,10.60
2014,12,10,14,54,10.50
2014,12,10,14,55,10.50
2014,12,10,14,56,10.50
2014,12,10,14,57,10.50
2014,12,10,14,58,10.50
2014,12,10,14,59,10.50
2014,12,10,15,00,10.50
2014,12,10,15,01,10.40
2014,12,10,15,02,10.40
2014,12,10,15,03,10.40
2014,12,10,15,04,10.40
2014,12,10,15,05,10.40
2014,12,10,15,06,10.40
2014,12,10,15,07,10.40
2014,12,10,15,08,10.40
2014,12,10,15,09,10.40
2014,12,10,15,10,10.40
2014,12,10,15,11,10.40
2014,12,10,15,12,10.30
2014,12,10,15,13,10.30
2014,12,10,15,14,10.30
2014,12,10,15,15,10.30
2014,12,10,15,16,10.30
2014,12,10,15,17,10.30
2014,12,10,15,18,10.30
2014,12,10,15,19,10.30
2014,12,10,15,20,10.30
2014,12,10,15,21,10.30
2014,12,10,15,22,10.30
2014,12,10,15,23,10.30
2014,12,10,15,24,10.30
2014,12,10,15,25,10.30
2014,12,10,15,26,10.30
2014,12,10,15,27,10.30
2014,12,10,15,28,10.30
2014,12,10,15,29,10.30
2014,12,10,15,30,10.30
2014,12,10,15,31,10.20
2014,12,10,15,32,10.20
2014,12,10,15,33,10.20
2014,12,10,15,34,10.30
2014,12,10,15,35,10.30
2014,12,10,15,36,10.30
2014,12,10,15,37,10.30
2014,12,10,15,38,10.30
2014,12,10,15,39,10.30
2014,12,10,15,40,10.30
2014,12,10,15,41,10.30
2014,12,10,15,42,10.30
2014,12,10,15,43,10.20
2014,12,10,15,44,10.20
2014,12,10,15,45,10.20
2014,12,10,15,46,10.20
2014,12,10,15,47,10.20
2014,12,10,15,48,10.20
2014,12,10,15,49,10.20
2014,12,10,15,50,10.20
2014,12,10,15,51,10.20
2014,12,10,15,52,10.20
2014,12,10,15,53,10.20
2014,12,10,15,54,10.10
2014,12,10,15,55,10.10
2014,12,10,15,56,10.10
2014,12,10,15,57,10.10
2014,12,10,15,58,10.10
2014,12,10,15,59,10.10
2014,12,10,16,00,10.10
2014,12,10,16,01,10.10
2014,12,10,16,02,10.00
2014,12,10,16,03,10.00
2014,12,10,16,04,10.00
2014,12,10,16,05,10.00
2014,12,10,16,06,10.00
2014,12,10,16,07,10.00
2014,12,10,16,08,9.90
2014,12,10,16,09,9.90
2014,12,10,16,10,9.90
2014,12,10,16,11,9.90
2014,12,10,16,12,9.90
2014,12,10,16,13,9.90
2014,12,10,16,14,9.90
2014,12,10,16,15,9.90
2014,12,10,16,16,9.90
2014,12,10,16,17,9.90
2014,12,10,16,18,9.90
2014,12,10,16,19,9.90
2014,12,10,16,20,9.90
2014,12,10,16,21,9.90
2014,12,10,16,22,9.90
2014,12,10,16,23,9.90
2014,12,10,16,24,9.90
2014,12,10,16,25,9.90
2014,12,10,16,26,9.90
2014,12,10,16,27,9.90
2014,12,10,16,28,9.90
2014,12,10,16,29,9.90
2014,12,10,16,30,9.90
2014,12,10,16,31,9.90
2014,12,10,16,32,9.90
2014,12,10,16,33,9.90
2014,12,10,16,34,9.90
2014,12,10,16,35,9.90
2014,12,10,16,36,9.90
2014,12,10,16,37,9.90
2014,12,10,16,38,9.90
2014,12,10,16,39,9.90
2014,12,10,16,40,9.90
2014,12,10,16,41,9.90
2014,12,10,16,42,9.90
2014,12,10,16,43,9.90
2014,12,10,16,44,9.90
2014,12,10,16,45,9.90
2014,12,10,16,46,9.90
2014,12,10,16,47,9.90
2014,12,10,16,48,9.90
2014,12,10,16,49,9.90
2014,12,10,16,50,9.90
2014,12,10,16,51,9.90
2014,12,10,16,52,9.90
2014,12,10,16,53,9.90
2014,12,10,16,54,9.90
2014,12,10,16,55,9.90
2014,12,10,16,56,9.90
2014,12,10,16,57,9.90
2014,12,10,16,58,9.90
2014,12,10,16,59,9.80
2014,12,10,17,00,9.80
2014,12,10,17,01,9.80
2014,12,10,17,02,9.80
2014,12,10,17,03,9.80
2014,12,10,17,04,9.80
2014,12,10,17,05,9.80
2014,12,10,17,06,9.80
2014,12,10,17,07,9.80
2014,12,10,17,08,9.80
2014,12,10,17,09,9.80
2014,12,10,17,10,9.80
2014,12,10,17,11,9.80
2014,12,10,17,12,9.80
2014,12,10,17,13,9.70
2014,12,10,17,14,9.70
2014,12,10,17,15,9.70
2014,12,10,17,16,9.70
2014,12,10,17,17,9.70
2014,12,10,17,18,9.70
2014,12,10,17,19,9.70
2014,12,10,17,20,9.70
2014,12,10,17,21,9.70
2014,12,10,17,22,9.70
2014,12,10,17,23,9.60
2014,12,10,17,24,9.60
2014,12,10,17,25,9.60
2014,12,10,17,26,9.60
2014,12,10,17,27,9.60
2014,12,10,17,28,9.50
2014,12,10,17,29,9.50
2014,12,10,17,30,9.50
2014,12,10,17,31,9.50
2014,12,10,17,32,9.50
2014,12,10,17,33,9.40
2014,12,10,17,34,9.40
2014,12,10,17,35,9.40
2014,12,10,17,36,9.40
2014,12,10,17,37,9.40
2014,12,10,17,38,9.40
2014,12,10,17,39,9.40
2014,12,10,17,40,9.40
2014,12,10,17,41,9.40
2014,12,10,17,42,9.40
2014,12,10,17,43,9.40
2014,12,10,17,44,9.40
2014,12,10,17,45,9.40
2014,12,10,17,46,9.40
2014,12,10,17,47,9.40
2014,12,10,17,48,9.40
2014,12,10,17,49,9.30
2014,12,10,17,50,9.30
2014,12,10,17,51,9.30
2014,12,10,17,52,9.30
2014,12,10,17,53,9.30
2014,12,10,17,54,9.30
2014,12,10,17,55,9.30
2014,12,10,17,56,9.30
2014,12,10,17,57,9.30
2014,12,10,17,58,9.30
2014,12,10,17,59,9.30
2014,12,10,18,00,9.20
2014,12,10,18,01,9.20
2014,12,10,18,02,9.20
2014,12,10,18,03,9.20
2014,12,10,18,04,9.10
2014,12,10,18,05,9.10
2014,12,10,18,06,9.10
2014,12,10,18,07,9.00
2014,12,10,18,08,9.00
2014,12,10,18,09,8.90
2014,12,10,18,10,8.90
2014,12,10,18,11,8.90
2014,12,10,18,12,8.90
2014,12,10,18,13,8.80
2014,12,10,18,14,8.80
2014,12,10,18,15,8.80
2014,12,10,18,16,8.80
2014,12,10,18,17,8.80
2014,12,10,18,18,8.80
2014,12,10,18,19,8.80
2014,12,10,18,20,8.80
2014,12,10,18,21,8.80
2014,12,10,18,22,8.80
2014,12,10,18,23,8.70
2014,12,10,18,24,8.70
2014,12,10,18,25,8.70
2014,12,10,18,26,8.70
2014,12,10,18,27,8.70
2014,12,10,18,28,8.70
2014,12,10,18,29,8.70
2014,12,10,18,30,8.70
2014,12,10,18,31,8.70
2014,12,10,18,32,8.70
2014,12,10,18,33,8.70
2014,12,10,18,34,8.70
2014,12,10,18,35,8.60
2014,12,10,18,36,8.60
2014,12,10,18,37,8.60
2014,12,10,18,38,8.60
2014,12,10,18,39,8.60
2014,12,10,18,40,8.60
2014,12,10,18,41,8.60
2014,12,10,18,42,8.60
2014,12,10,18,43,8.60
2014,12,10,18,44,8.60
2014,12,10,18,45,8.50
2014,12,10,18,46,8.50
2014,12,10,18,47,8.50
2014,12,10,18,48,8.50
2014,12,10,18,49,8.50
2014,12,10,18,50,8.50
2014,12,10,18,51,8.50
2014,12,10,18,52,8.40
2014,12,10,18,53,8.40
2014,12,10,18,54,8.40
2014,12,10,18,55,8.40
2014,12,10,18,56,8.40
2014,12,10,18,57,8.40
2014,12,10,18,58,8.40
2014,12,10,18,59,8.40
2014,12,10,19,00,8.40
2014,12,10,19,01,8.40
2014,12,10,19,02,8.40
2014,12,10,19,03,8.40
2014,12,10,19,04,8.40
2014,12,10,19,05,8.40
2014,12,10,19,06,8.30
2014,12,10,19,07,8.30
2014,12,10,19,08,8.30
2014,12,10,19,09,8.30
2014,12,10,19,10,8.30
2014,12,10,19,11,8.30
2014,12,10,19,12,8.30
2014,12,10,19,13,8.30
2014,12,10,19,14,8.30
2014,12,10,19,15,8.30
2014,12,10,19,16,8.30
2014,12,10,19,17,8.20
2014,12,10,19,18,8.20
2014,12,10,19,19,8.20
2014,12,10,19,20,8.20
2014,12,10,19,21,8.20
2014,12,10,19,22,8.20
2014,12,10,19,23,8.20
2014,12,10,19,24,8.20
2014,12,10,19,25,8.20
2014,12,10,19,26,8.20
2014,12,10,19,27,8.20
2014,12,10,19,28,8.20
2014,12,10,19,29,8.20
2014,12,10,19,30,8.20
2014,12,10,19,31,8.20
2014,12,10,19,32,8.20
2014,12,10,19,33,8.20
2014,12,10,19,34,8.20
2014,12,10,19,35,8.20
2014,12,10,19,36,8.20
2014,12,10,19,37,8.20
2014,12,10,19,38,8.20
2014,12,10,19,39,8.20
2014,12,10,19,40,8.20
2014,12,10,19,41,8.20
2014,12,10,19,42,8.20
2014,12,10,19,43,8.20
2014,12,10,19,44,8.20
2014,12,10,19,45,8.20
2014,12,10,19,46,8.20
2014,12,10,19,47,8.20
2014,12,10,19,48,8.10
2014,12,10,19,49,8.10
2014,12,10,19,50,8.10
2014,12,10,19,51,8.10
2014,12,10,19,52,8.10
2014,12,10,19,53,8.10
2014,12,10,19,54,8.10
2014,12,10,19,55,8.10
2014,12,10,19,56,8.10
2014,12,10,19,57,8.10
2014,12,10,19,58,8.10
2014,12,10,19,59,8.10
2014,12,10,20,00,8.10
2014,12,10,20,01,8.10
2014,12,10,20,02,8.10
2014,12,10,20,03,8.10
2014,12,10,20,04,8.10
2014,12,10,20,05,8.10
2014,12,10,20,06,8.10
2014,12,10,20,07,8.00
2014,12,10,20,08,8.00
2014,12,10,20,09,8.00
2014,12,10,20,10,8.00
2014,12,10,20,11,8.00
2014,12,10,20,12,8.00
2014,12,10,20,13,8.00
2014,12,10,20,14,8.00
2014,12,10,20,15,8.00
2014,12,10,20,16,8.00
2014,12,10,20,17,8.00
2014,12,10,20,18,8.00
2014,12,10,20,19,8.00
2014,12,10,20,20,8.00
2014,12,10,20,21,8.00
2014,12,10,20,22,8.00
2014,12,10,20,23,8.00
2014,12,10,20,24,8.00
2014,12,10,20,25,8.00
2014,12,10,20,26,8.00
2014,12,10,20,27,7.90
2014,12,10,20,28,8.00
2014,12,10,20,29,7.90
2014,12,10,20,30,7.90
2014,12,10,20,31,7.90
2014,12,10,20,32,7.90
2014,12,10,20,33,7.90
2014,12,10,20,34,7.90
2014,12,10,20,35,7.90
2014,12,10,20,36,7.90
2014,12,10,20,37,7.90
2014,12,10,20,38,7.90
2014,12,10,20,39,7.90
2014,12,10,20,40,7.90
2014,12,10,20,41,7.90
2014,12,10,20,42,7.90
2014,12,10,20,43,7.90
2014,12,10,20,44,7.90
2014,12,10,20,45,7.90
2014,12,10,20,46,7.90
2014,12,10,20,47,7.90
2014,12,10,20,48,7.90
2014,12,10,20,49,7.90
2014,12,10,20,50,7.90
2014,12,10,20,51,7.90
2014,12,10,20,52,7.90
2014,12,10,20,53,7.80
2014,12,10,20,54,7.80
2014,12,10,20,55,7.80
2014,12,10,20,56,7.80
2014,12,10,20,57,7.80
2014,12,10,20,58,7.80
2014,12,10,20,59,7.80
2014,12,10,21,00,7.80
2014,12,10,21,01,7.90
2014,12,10,21,02,7.90
2014,12,10,21,03,7.90
2014,12,10,21,04,7.90
2014,12,10,21,05,7.90
2014,12,10,21,06,7.90
2014,12,10,21,07,7.80
2014,12,10,21,08,7.80
2014,12,10,21,09,7.80
2014,12,10,21,10,7.80
2014,12,10,21,11,7.80
2014,12,10,21,12,7.80
2014,12,10,21,13,7.80
2014,12,10,21,14,7.80
2014,12,10,21,15,7.80
2014,12,10,21,16,7.80
2014,12,10,21,17,7.90
2014,12,10,21,18,7.90
2014,12,10,21,19,7.90
2014,12,10,21,20,7.90
2014,12,10,21,21,7.90
2014,12,10,21,22,8.00
2014,12,10,21,23,8.00
2014,12,10,21,24,8.00
2014,12,10,21,25,8.10
2014,12,10,21,26,8.20
2014,12,10,21,27,8.20
2014,12,10,21,28,8.20
2014,12,10,21,29,8.20
2014,12,10,21,30,8.30
2014,12,10,21,31,8.30
2014,12,10,21,32,8.30
2014,12,10,21,33,8.30
2014,12,10,21,34,8.30
2014,12,10,21,35,8.30
2014,12,10,21,36,8.30
2014,12,10,21,37,8.40
2014,12,10,21,38,8.40
2014,12,10,21,39,8.40
2014,12,10,21,40,8.40
2014,12,10,21,41,8.50
2014,12,10,21,42,8.50
2014,12,10,21,43,8.50
2014,12,10,21,44,8.50
2014,12,10,21,45,8.50
2014,12,10,21,46,8.50
2014,12,10,21,47,8.50
2014,12,10,21,48,8.60
2014,12,10,21,49,8.60
2014,12,10,21,50,8.60
2014,12,10,21,51,8.60
2014,12,10,21,52,8.60
2014,12,10,21,53,8.60
2014,12,10,21,54,8.60
2014,12,10,21,55,8.60
2014,12,10,21,56,8.60
2014,12,10,21,57,8.60
2014,12,10,21,58,8.60
2014,12,10,21,59,8.60
2014,12,10,22,00,8.60
2014,12,10,22,01,8.60
2014,12,10,22,02,8.50
2014,12,10,22,03,8.50
2014,12,10,22,04,8.50
2014,12,10,22,05,8.50
2014,12,10,22,06,8.50
2014,12,10,22,07,8.50
2014,12,10,22,08,8.50
2014,12,10,22,09,8.50
2014,12,10,22,10,8.40
2014,12,10,22,11,8.40
2014,12,10,22,12,8.40
2014,12,10,22,13,8.40
2014,12,10,22,14,8.40
2014,12,10,22,15,8.40
2014,12,10,22,16,8.40
2014,12,10,22,17,8.40
2014,12,10,22,18,8.40
2014,12,10,22,19,8.40
2014,12,10,22,20,8.40
2014,12,10,22,21,8.30
2014,12,10,22,22,8.30
2014,12,10,22,23,8.30
2014,12,10,22,24,8.30
2014,12,10,22,25,8.30
2014,12,10,22,26,8.30
2014,12,10,22,27,8.30
2014,12,10,22,28,8.20
2014,12,10,22,29,8.20
2014,12,10,22,30,8.20
2014,12,10,22,31,8.20
2014,12,10,22,32,8.20
2014,12,10,22,33,8.20
2014,12,10,22,34,8.20
2014,12,10,22,35,8.20
2014,12,10,22,36,8.20
2014,12,10,22,37,8.20
2014,12,10,22,38,8.20
2014,12,10,22,39,8.20
2014,12,10,22,40,8.20
2014,12,10,22,41,8.20
2014,12,10,22,42,8.20
2014,12,10,22,43,8.20
2014,12,10,22,44,8.20
2014,12,10,22,45,8.10
2014,12,10,22,46,8.20
2014,12,10,22,47,8.10
2014,12,10,22,48,8.10
2014,12,10,22,49,8.10
2014,12,10,22,50,8.10
2014,12,10,22,51,8.10
2014,12,10,22,52,8.10
2014,12,10,22,53,8.10
2014,12,10,22,54,8.10
2014,12,10,22,55,8.10
2014,12,10,22,56,8.10
2014,12,10,22,57,8.10
2014,12,10,22,58,8.10
2014,12,10,22,59,8.00
2014,12,10,23,00,8.00
2014,12,10,23,01,8.00
2014,12,10,23,02,8.00
2014,12,10,23,03,8.00
2014,12,10,23,04,7.90
2014,12,10,23,05,7.90
2014,12,10,23,06,7.90
2014,12,10,23,07,7.90
2014,12,10,23,08,7.80
2014,12,10,23,09,7.80
2014,12,10,23,10,7.80
2014,12,10,23,11,7.80
2014,12,10,23,12,7.70
2014,12,10,23,13,7.70
2014,12,10,23,14,7.70
2014,12,10,23,15,7.70
2014,12,10,23,16,7.70
2014,12,10,23,17,7.70
2014,12,10,23,18,7.60
2014,12,10,23,19,7.60
2014,12,10,23,20,7.60
2014,12,10,23,21,7.60
2014,12,10,23,22,7.70
2014,12,10,23,23,7.70
2014,12,10,23,24,7.70
2014,12,10,23,25,7.70
2014,12,10,23,26,7.70
2014,12,10,23,27,7.80
2014,12,10,23,28,7.80
2014,12,10,23,29,7.80
2014,12,10,23,30,7.80
2014,12,10,23,31,7.80
2014,12,10,23,32,7.80
2014,12,10,23,33,7.80
2014,12,10,23,34,7.80
2014,12,10,23,35,7.80
2014,12,10,23,36,7.90
2014,12,10,23,37,7.90
2014,12,10,23,38,8.00
2014,12,10,23,39,8.00
2014,12,10,23,40,8.10
2014,12,10,23,41,8.10
2014,12,10,23,42,8.20
2014,12,10,23,43,8.20
2014,12,10,23,44,8.30
2014,12,10,23,45,8.40
2014,12,10,23,46,8.40
2014,12,10,23,47,8.50
2014,12,10,23,48,8.50
2014,12,10,23,49,8.50
2014,12,10,23,50,8.60
2014,12,10,23,51,8.60
2014,12,10,23,52,8.60
2014,12,10,23,53,8.60
2014,12,10,23,54,8.60
2014,12,10,23,55,8.60
2014,12,10,23,56,8.50
2014,12,10,23,57,8.60
2014,12,10,23,58,8.60
2014,12,10,23,59,8.60
